TimeCST,TemperatureF,Dew PointF,Humidity,Sea Level PressureIn,VisibilityMPH,Wind Direction,Wind SpeedMPH,Gust SpeedMPH,PrecipitationIn,Events,Conditions,WindDirDegrees,DateUTC
12:43 AM,41.0,37.4,87,30.28,6.0,Calm,Calm,-,N/A,,Scattered Clouds,0,2013-12-02 06:43:00
1:44 AM,39.2,35.6,87,30.26,6.0,Calm,Calm,-,N/A,,Scattered Clouds,0,2013-12-02 07:44:00
2:46 AM,37.4,33.8,87,29.99,6.0,Calm,Calm,-,N/A,,Scattered Clouds,0,2013-12-02 08:46:00
2:50 AM,48,42,73,29.97,5,SSW,2.2,,,,,210,2013-12-02 08:50:00
3:44 AM,35.6,33.8,93,30.25,6.0,Calm,Calm,-,N/A,,Scattered Clouds,0,2013-12-02 09:44:00
4:43 AM,35.6,33.8,93,30.24,6.0,Calm,Calm,-,N/A,,Scattered Clouds,0,2013-12-02 10:43:00
5:46 AM,33.8,32.0,93,29.98,6.0,Calm,Calm,-,N/A,,Scattered Clouds,0,2013-12-02 11:46:00
5:50 AM,44,40,83,30.03,5,South,2.2,,,,,180,2013-12-02 11:50:00
6:46 AM,33.8,32.0,93,30.26,8.0,Calm,Calm,-,N/A,,Mostly Cloudy,0,2013-12-02 12:46:00
7:40 AM,35.6,33.8,93,30.27,8.0,Calm,Calm,-,N/A,,Mostly Cloudy,0,2013-12-02 13:40:00
8:41 AM,46.4,41.0,81,30.06,8.0,Calm,Calm,-,N/A,,Mostly Cloudy,0,2013-12-02 14:41:00
9:50 AM,59.0,39.2,48,30.28,8.0,Calm,Calm,-,N/A,,Mostly Cloudy,0,2013-12-02 15:50:00
10:41 AM,64.4,39.2,40,30.26,8.0,Calm,Calm,-,N/A,,Mostly Cloudy,0,2013-12-02 16:41:00
11:12 AM,69.8,39.2,33,30.24,8.0,East,3.5,-,N/A,,Mostly Cloudy,100,2013-12-02 17:12:00
11:47 AM,71.6,39.2,31,29.94,8.0,North,4.6,-,N/A,,Mostly Cloudy,10,2013-12-02 17:47:00
11:50 AM,72,38,19,30.04,7,ENE,2.2,,,,Partly Cloudy,70,2013-12-02 17:50:00
12:59 PM,71.6,41.0,33,30.20,8.0,North,5.8,-,N/A,,Mostly Cloudy,350,2013-12-02 18:59:00
1:42 PM,75.2,41.0,29,30.18,8.0,NNW,6.9,-,N/A,,Mostly Cloudy,340,2013-12-02 19:42:00
2:42 PM,77.0,39.2,26,29.88,8.0,Calm,Calm,-,N/A,,Mostly Cloudy,0,2013-12-02 20:42:00
2:55 PM,75,50,30,29.91,7,SSW,2.2,,,,Partly Cloudy,210,2013-12-02 20:55:00
3:40 PM,75.2,41.0,29,30.12,8.0,Calm,Calm,-,N/A,,Mostly Cloudy,0,2013-12-02 21:40:00
4:48 PM,75.2,37.4,25,30.11,8.0,Calm,Calm,-,N/A,,Scattered Clouds,0,2013-12-02 22:48:00
5:45 PM,70,59,61,29.81,7,SSW,2.2,,,,Partly Cloudy,210,2013-12-02 23:45:00
5:45 PM,71.6,39.2,31,29.88,8.0,North,3.5,-,N/A,,Scattered Clouds,10,2013-12-02 23:45:00
6:42 PM,62.6,39.2,42,30.13,7.0,Calm,Calm,-,N/A,,Scattered Clouds,0,2013-12-03 00:42:00
7:49 PM,57.2,41.0,55,30.15,7.0,Calm,Calm,-,N/A,,Partly Cloudy,0,2013-12-03 01:49:00
8:26 PM,51.8,41.0,67,30.17,7.0,Calm,Calm,-,N/A,,Partly Cloudy,0,2013-12-03 02:26:00
8:44 PM,51.8,39.2,62,29.94,7.0,Calm,Calm,-,N/A,,Partly Cloudy,0,2013-12-03 02:44:00
8:50 PM,60,53,71,29.75,5,SSW,2.2,,,,,200,2013-12-03 02:50:00
9:43 PM,50.0,42.8,76,30.18,6.0,Calm,Calm,-,N/A,,Partly Cloudy,0,2013-12-03 03:43:00
10:44 PM,44.6,41.0,87,30.19,6.0,Calm,Calm,-,N/A,,Clear,0,2013-12-03 04:44:00
11:46 PM,46.4,42.8,87,29.86,6.0,Calm,Calm,-,N/A,,Clear,0,2013-12-03 05:46:00
11:50 PM,53,50,84,29.80,5,SSW,2.2,,,,,210,2013-12-03 05:50:00